Regional Weather Roundup
Issued by NWS

Home | Current Version | Previous Version | Graphics & Text | Print | Product List | Glossary On
Versions: 1 2 3 4 5 6 7 8 9 10 11 12 13 14 15 16 17 18 19 20 21 22 23 24 25 26 27 28 29 30 31 32 33 34 35 36 37 38 39 40 41 42 43 44 45 46 47 48 49 50
000
ASUS43 KIND 220759
RWRIN

WEATHER ROUNDUP FOR INDIANA
NATIONAL WEATHER SERVICE INDIANAPOLIS IN
300 AM EST SUN JAN 22 2017

NOTE: "FAIR" INDICATES FEW OR NO CLOUDS BELOW 12,000 FEET WITH NO
SIGNIFICANT WEATHER AND/OR OBSTRUCTIONS TO VISIBILITY.

* - STATION DOES NOT REPORT WEATHER SUCH AS PRECIPITATION OR FOG.

+ - STATION NOT QUALITY CONTROLLED BY THE NATIONAL WEATHER SERVICE.
    USE DATA WITH CAUTION...ESPECIALLY DEWPOINT AND RELATIVE
    HUMIDITY OBSERVATIONS.

INZ001>003-010>013-019-020-220900-
NORTHWEST INDIANA

CITY           SKY/WX    TMP DP  RH WIND       PRES   REMARKS
MONTICELLO +   PTCLDY    44  43  96 NE3       29.56F FOG

$$

LMZ046-743>745-220900-
SOUTHERN LAKE MICHIGAN

STATION/POSITION TIME  TEMP    WIND        PRES    WAVE
                       AIR SEA DIR/SP/G            HT
                 (UTC) (F)     (DEG/KT/KT) (MB)    (FT)
BURNS HARBOR     0740   35     360/  9/ 12 1003.0S
MICHIGAN CITY    0730   44     320/  5/  7   N/A

$$

INZ004-005-014>016-021>024-220900-
NORTH CENTRAL INDIANA

CITY           SKY/WX    TMP DP  RH WIND       PRES   REMARKS
GOSHEN         FOG       37  34  89 CALM      29.59F VSB 1/4
PERU/GRISSOM   MOCLDY    50  50 100 SE5       29.57F
SOUTH BEND     FOG       35  35 100 CALM      29.60S VSB 1/4

$$

INZ006>009-017-018-025>027-220900-
NORTHEAST INDIANA

CITY           SKY/WX    TMP DP  RH WIND       PRES   REMARKS
ANGOLA *+      CLOUDY    37  30  75 CALM      29.60S VSB 1/4
FORT WAYNE     LGT RAIN  50  48  93 CALM      29.62R
KENDALLVILLE + CLOUDY    48  48 100 S6        29.60S FOG

$$

INZ028-029-035-036-043>045-051>053-220900-
WEST CENTRAL INDIANA

CITY           SKY/WX    TMP DP  RH WIND       PRES   REMARKS
CRAWFORDSVL +  CLEAR     48  48 100 SE3       29.56F
LAFAYETTE      FOG       46  46 100 CALM      29.55F VSB 1/2
TERRE HAUTE    CLEAR     46  44  93 N6        29.53F

$$

INZ030>032-037>040-046>048-054>057-064-065-220900-
CENTRAL INDIANA

CITY           SKY/WX    TMP DP  RH WIND       PRES   REMARKS
INDIANAPOLIS   PTCLDY    49  47  93 E6        29.56F
-EAGLE CREEK   CLEAR     46  44  93 N3        29.56F FOG
KOKOMO +       LGT RAIN  50  49  96 E6        29.59F
MT COMFORT *+  CLEAR     45  45 100 SE6       29.58F
SHELBYVILLE    CLEAR     48  45  89 E7        29.56F

$$

INZ033-034-041-042-049-050-058-059-220900-
EAST CENTRAL INDIANA

CITY           SKY/WX    TMP DP  RH WIND       PRES   REMARKS
MUNCIE         PTCLDY    55  50  83 S6        29.59F

$$

INZ060-061-067>069-081>083-085>088-220900-
SOUTHWEST INDIANA

CITY           SKY/WX    TMP DP  RH WIND       PRES   REMARKS
EVANSVILLE     PTCLDY    51  46  83 E3        29.51S
HUNTINGBURG *+ CLEAR     52  46  82 SE7       29.52S

$$

INZ062-063-066-070>080-084-089>092-220900-
SOUTH CENTRAL AND SOUTHEAST INDIANA

CITY           SKY/WX    TMP DP  RH WIND       PRES   REMARKS
BLOOMINGTON    FOG       44  42  93 CALM      29.53F VSB 1
MADISON *+     CLEAR     45  43  93 NE3       29.56F
SEYMOUR +      CLEAR     48  48 100 NE6       29.54F

$$




USA.gov is the U.S. government's official web portal to all federal, state and local government web resources and services.